Location: Tierz
(42.1336°N, 0.3549°W)
Time: 18:05:31
(UTC+00:00)

SeaSat 1 - Pass Details

Date: 29 October 2020
Orbit: 744 x 747 km, 108.0° (Epoch: 03 December)

Event Time Altitude Azimuth Distance (km) Brightness Sun altitude
Exits shadow 19:40:25 33° 341° (NNW) 1,232 3.7 -30.5°
Drops below altitude 10° 19:43:08 10° 337° (NNW) 2,271 5.3 -31.0°
Sets 19:45:24 0° 336° (NNW) 3,199 6.1 -31.4°
